Weather in Pirogovo

Russia / Tver Oblast     56°53′40″N   35°05′08″E
temp.,
°C
wind,
m/s
gust,
m/s
humid.,
%
clouds,
%
prec.,
mm/h
press.,
hPa
HPBL,
m
25 february, thu
thu2500:00−6ssw4995100 0.1 1022296
03:00−1sw61494100 0.7 1018574
06:00+2wsw51399100 2.4 1012459
09:00+3wnw414100100 2.6 1012519
12:00+3wnw413100100 0.0 1012519
15:00+3wnw310100100 0.0 1013390
18:00+2w39100100 0.0 1013275
21:00+2wsw31099100 0.3 1013295
26 february, fri
fri2600:00+3w41399100 1.1 1011401
03:00+3w51399100 1.5 1009464
06:00+3wsw51397100 0.1 1007463
09:00+3wsw61598100 0.1 1004506
12:00+3w51597100 1.1 1002859
15:00+2w7158597 1.2 10021152
18:00+2wnw7168792 0.0 10021226
21:00+2wnw6148896 0.1 1002956
27 february, sat
sat2700:00+1wnw61392100 0.1 1002719
03:00+1wnw6129699 0.1 1002763
06:000nw51197100 0.3 1003717
09:000nnw51097100 0.4 1005677
12:00+1n51090100 0.0 1007841
15:000nnw598797 0.1 1010724
18:00−1nnw4109591 0.1 1012572
21:00−2nnw399691 0.3 1014572
28 february, sun
sun2800:00−2nnw3109692 0.3 1016523
03:00−2nnw499389 0.4 1018645
06:00−3nnw499395 0.1 1018589
09:00−3nnw499192 0.1 1020706
12:00−2nnw478399 0.1 1021765
15:00−1nnw468099 0.1 1022796
18:00−2nw3783100 0.0 1023412
21:00−3nw368699 0.1 1025478
1 march, mon
mon100:00−5w239493 0.0 102546
03:00−5wsw369658 0.0 1026177
06:00−2w389493 0.1 1025345
09:00−1w399395 0.1 1024492
12:00+1w5108999 0.0 1023801
15:00+2w51289100 0.0 1021769
18:00+2w51388100 0.0 1018733
21:00+2w61489100 0.0 1017807